Weather History for Sanford, ME

Change the Weather History Date:

Wednesday, November 21, 2012

  Actual Average Record
Temperature  
Mean Temperature 36 °F -  
Max Temperature 46 °F 43 °F 57 °F (1999)
Min Temperature 24 °F 26 °F 12 °F (2008)
Degree Days  
Heating Degree Days 29    
Moisture  
Dew Point 26 °F    
Average Humidity 68    
Maximum Humidity 100    
Minimum Humidity 48    
Precipitation  
Precipitation 0.00 in - - ()
Sea Level Pressure  
Sea Level Pressure 30.23 in    
Wind  
Wind Speed 5 mph (North)    
Max Wind Speed 12 mph    
Max Gust Speed -    
Visibility 10 miles    
Events      
Averages and records for this station are not official NWS values.
T = Trace of Precipitation, MM = Missing Value Source: NWS Daily Summary

Daily Weather History Graph

Daily Weather History Graph

Search for Another Location

Airport:

Trip Planner

Search our weather history database for the weather conditions in past years. The results will help you decide how hot, cold, wet, or windy it might be!

Date:

Astronomy

Nov. 21, 2012 Rise Set
Actual Time 6:44 AM EST 4:12 PM EST
Civil Twilight 6:13 AM EST 4:44 PM EST
Nautical Twilight 5:38 AM EST 5:19 PM EST
Astronomical Twilight 5:04 AM EST 5:53 PM EST
Moon 12:37 PM EST (11/21) No Moon Set
Length of Visible Light 10h 31m
Length of Day
9h 28m
First Quarter, 61% of the Moon is Illuminated
Nov 21
First Quarter
Nov 28
Full
Dec 6
Last Quarter
Dec 13
New
Dec 20
First Quarter

Hourly Weather History & Observations

Time (EST) Temp. Windchill Dew Point Humidity Pressure Visibility Wind Dir Wind Speed Gust Speed Precip Events Conditions
12:15 AM 35.6 °F 29.9 °F 23.0 °F 60% 30.17 in 10.0 mi North 6.9 mph - N/A   Overcast
12:35 AM 35.6 °F 31.7 °F 19.4 °F 52% 30.17 in 10.0 mi North 4.6 mph - N/A   Overcast
12:55 AM 37.4 °F 33.8 °F 19.4 °F 48% 30.17 in 10.0 mi North 4.6 mph - N/A   Overcast
1:15 AM 35.6 °F 31.7 °F 17.6 °F 48% 30.18 in 10.0 mi North 4.6 mph - N/A   Overcast
1:35 AM 33.8 °F - 23.0 °F 65% 30.18 in 10.0 mi Calm Calm - N/A   Mostly Cloudy
1:55 AM 33.8 °F 30.8 °F 28.4 °F 81% 30.18 in 10.0 mi NNW 3.5 mph - N/A   Partly Cloudy
2:15 AM 33.8 °F - 30.2 °F 87% 30.18 in 10.0 mi Calm Calm - N/A   Clear
2:35 AM 33.8 °F 30.8 °F 30.2 °F 87% 30.18 in 10.0 mi North 3.5 mph - N/A   Scattered Clouds
2:55 AM 33.8 °F - 26.6 °F 75% 30.18 in 10.0 mi Calm Calm - N/A   Partly Cloudy
3:15 AM 35.6 °F 31.7 °F 23.0 °F 60% 30.18 in 10.0 mi North 4.6 mph - N/A   Scattered Clouds
3:35 AM 33.8 °F - 21.2 °F 60% 30.18 in 10.0 mi Calm Calm - N/A   Partly Cloudy
3:55 AM 35.6 °F 31.7 °F 21.2 °F 56% 30.18 in 10.0 mi North 4.6 mph - N/A   Clear
4:15 AM 35.6 °F 31.7 °F 19.4 °F 52% 30.19 in 10.0 mi North 4.6 mph - N/A   Clear
4:35 AM 35.6 °F 31.7 °F 23.0 °F 60% 30.20 in 10.0 mi North 4.6 mph - N/A   Clear
4:55 AM 35.6 °F 29.9 °F 26.6 °F 70% 30.20 in 10.0 mi North 6.9 mph - N/A   Clear
5:15 AM 37.4 °F 32.1 °F 26.6 °F 65% 30.20 in 10.0 mi North 6.9 mph - N/A   Mostly Cloudy
5:35 AM 37.4 °F 31.4 °F 28.4 °F 70% 30.21 in 10.0 mi North 8.1 mph - N/A   Overcast
5:55 AM 37.4 °F 31.4 °F 28.4 °F 70% 30.21 in 10.0 mi North 8.1 mph - N/A   Mostly Cloudy
6:15 AM 37.4 °F 32.8 °F 28.4 °F 70% 30.21 in 10.0 mi North 5.8 mph - N/A   Scattered Clouds
6:35 AM 35.6 °F 30.7 °F 26.6 °F 70% 30.22 in 10.0 mi North 5.8 mph - N/A   Clear
6:55 AM 35.6 °F 29.9 °F 26.6 °F 70% 30.23 in 10.0 mi North 6.9 mph - N/A   Clear
7:15 AM 37.4 °F 32.1 °F 24.8 °F 60% 30.24 in 10.0 mi North 6.9 mph - N/A   Clear
7:35 AM 37.4 °F 32.8 °F 24.8 °F 60% 30.24 in 10.0 mi North 5.8 mph - N/A   Scattered Clouds
7:55 AM 37.4 °F 31.4 °F 23.0 °F 56% 30.25 in 10.0 mi North 8.1 mph - N/A   Mostly Cloudy
8:15 AM 37.4 °F 32.1 °F 24.8 °F 60% 30.25 in 10.0 mi North 6.9 mph - N/A   Mostly Cloudy
8:35 AM 39.2 °F 33.0 °F 24.8 °F 56% 30.25 in 10.0 mi North 9.2 mph - N/A   Partly Cloudy
8:55 AM 39.2 °F 32.5 °F 26.6 °F 61% 30.25 in 10.0 mi North 10.4 mph - N/A   Mostly Cloudy
9:15 AM 39.2 °F 33.6 °F 28.4 °F 65% 30.26 in 10.0 mi North 8.1 mph - N/A   Mostly Cloudy
9:35 AM 41.0 °F 36.4 °F 28.4 °F 61% 30.26 in 10.0 mi North 6.9 mph - N/A   Mostly Cloudy
9:55 AM 42.8 °F 38.6 °F 30.2 °F 61% 30.26 in 10.0 mi North 6.9 mph - N/A   Scattered Clouds
10:15 AM 42.8 °F 36.6 °F 30.2 °F 61% 30.26 in 10.0 mi North 11.5 mph - N/A   Partly Cloudy
10:35 AM 42.8 °F 38.0 °F 30.2 °F 61% 30.26 in 10.0 mi North 8.1 mph - N/A   Scattered Clouds
11:15 AM 44.6 °F 40.7 °F 30.2 °F 57% 30.24 in 10.0 mi North 6.9 mph - N/A   Scattered Clouds
11:36 AM 44.6 °F 40.2 °F 30.2 °F 57% 30.23 in 10.0 mi NNE 8.1 mph - N/A   Partly Cloudy
11:55 AM 44.6 °F 40.7 °F 35.6 °F 71% 30.23 in 10.0 mi NE 6.9 mph - N/A   Mostly Cloudy
12:15 PM 46.4 °F 41.9 °F 32.0 °F 57% 30.22 in 10.0 mi NE 9.2 mph - N/A   Mostly Cloudy
12:35 PM 46.4 °F 42.9 °F 33.8 °F 62% 30.23 in 10.0 mi NNE 6.9 mph - N/A   Overcast
12:55 PM 46.4 °F 42.9 °F 32.0 °F 57% 30.23 in 10.0 mi NNE 6.9 mph - N/A   Overcast
1:15 PM 46.4 °F 42.9 °F 35.6 °F 66% 30.23 in 10.0 mi NNE 6.9 mph - N/A   Overcast
1:35 PM 46.4 °F 43.5 °F 30.2 °F 53% 30.23 in 10.0 mi NNE 5.8 mph - N/A   Overcast
1:55 PM 46.4 °F 44.3 °F 32.0 °F 57% 30.23 in 10.0 mi NNE 4.6 mph - N/A   Mostly Cloudy
2:15 PM 46.4 °F 44.3 °F 35.6 °F 66% 30.23 in 10.0 mi North 4.6 mph - N/A   Clear
2:35 PM 46.4 °F 43.5 °F 32.0 °F 57% 30.23 in 10.0 mi North 5.8 mph - N/A   Clear
2:55 PM 46.4 °F 45.2 °F 32.0 °F 57% 30.23 in 10.0 mi NE 3.5 mph - N/A   Clear
3:15 PM 46.4 °F 43.5 °F 33.8 °F 62% 30.23 in 10.0 mi NE 5.8 mph - N/A   Clear
3:35 PM 46.4 °F 43.5 °F 30.2 °F 53% 30.24 in 10.0 mi ENE 5.8 mph - N/A   Clear
3:55 PM 42.8 °F 38.6 °F 30.2 °F 61% 30.24 in 10.0 mi ENE 6.9 mph - N/A   Clear
4:15 PM 42.8 °F 41.1 °F 33.8 °F 70% 30.24 in 10.0 mi East 3.5 mph - N/A   Clear
4:35 PM 39.2 °F - 33.8 °F 81% 30.24 in 10.0 mi Calm Calm - N/A   Clear
5:15 PM 33.8 °F - 26.6 °F 75% 30.25 in 10.0 mi Calm Calm - N/A   Scattered Clouds
5:35 PM 35.6 °F - 28.4 °F 75% 30.25 in 10.0 mi Calm Calm - N/A   Partly Cloudy
5:55 PM 32.0 °F - 30.2 °F 93% 30.25 in 10.0 mi Calm Calm - N/A   Mostly Cloudy
6:15 PM 30.2 °F - 26.6 °F 86% 30.25 in 10.0 mi Calm Calm - N/A   Partly Cloudy
6:35 PM 30.2 °F - 28.4 °F 93% 30.26 in 10.0 mi Calm Calm - N/A   Clear
6:55 PM 28.4 °F - 26.6 °F 93% 30.26 in 9.0 mi Calm Calm - N/A   Clear
7:15 PM 28.4 °F - 21.2 °F 74% 30.26 in 10.0 mi Calm Calm - N/A   Clear
7:35 PM 26.6 °F - 21.2 °F 80% 30.27 in 10.0 mi Calm Calm - N/A   Clear
7:55 PM 28.4 °F - 19.4 °F 69% 30.27 in 9.0 mi Calm Calm - N/A   Clear
8:15 PM 28.4 °F - 19.4 °F 69% 30.27 in 10.0 mi Calm Calm - N/A   Clear
8:35 PM 26.6 °F - 19.4 °F 74% 30.27 in 9.0 mi Calm Calm - N/A   Clear
8:55 PM 26.6 °F - 17.6 °F 69% 30.27 in 10.0 mi Calm Calm - N/A   Clear
9:15 PM 28.4 °F - 19.4 °F 69% 30.27 in 10.0 mi Calm Calm - N/A   Clear
9:35 PM 26.6 °F 22.6 °F 17.6 °F 69% 30.27 in 10.0 mi WSW 3.5 mph - N/A   Clear
9:55 PM 26.6 °F 22.6 °F 21.2 °F 80% 30.26 in 7.0 mi WSW 3.5 mph - N/A   Clear
10:15 PM 26.6 °F - 23.0 °F 86% 30.26 in 10.0 mi Calm Calm - N/A   Clear
10:35 PM 26.6 °F - 26.6 °F 100% 30.26 in 9.0 mi Calm Calm - N/A   Clear
10:55 PM 26.6 °F - 24.8 °F 93% 30.26 in 8.0 mi Calm Calm - N/A   Clear
11:15 PM 26.6 °F 22.6 °F 19.4 °F 74% 30.26 in 9.0 mi West 3.5 mph - N/A   Clear
11:35 PM 24.8 °F 20.5 °F 15.8 °F 69% 30.25 in 10.0 mi West 3.5 mph - N/A   Clear